When you browse on this site, cookies collect data to enhance your experience and personalize the content and advertising you see.
Visit our Privacy Policy to learn more. By continuing to use the site, you agree to this use of cookies and data.
  • In Switzerland
  • List of Countries
  • For 7 days
  • Water Temperature
  • Satellite Maps
  • Weather Map
  • Weather Widgets
  • user-avatar
    Login

    Hourly Weather Saurimo

    Today, 23 May, Thursday

    Time Temperature Precipitation Wind Pressure Humidity
    00:00 +24°C° 0 mm 1 mps 671 mmHg 64%
    01:00 +23°C° 0 mm 1 mps 671 mmHg 65%
    02:00 +22°C° 0 mm 1 mps 671 mmHg 66%
    03:00 +21°C° 0 mm 1 mps 670 mmHg 68%
    04:00 +21°C° 0 mm 1 mps 670 mmHg 69%
    05:00 +21°C° 0 mm 1 mps 670 mmHg 66%
    06:00 +22°C° 0 mm 1 mps 671 mmHg 64%
    07:00 +21°C° 0 mm 2 mps 671 mmHg 62%
    08:00 +24°C° 0 mm 2 mps 672 mmHg 58%
    09:00 +25°C° 0 mm 2 mps 672 mmHg 54%
    10:00 +27°C° 0 mm 3 mps 673 mmHg 50%
    11:00 +29°C° 0 mm 3 mps 673 mmHg 45%
    12:00 +30°C° 0 mm 3 mps 672 mmHg 41%
    13:00 +33°C° 0 mm 3 mps 672 mmHg 36%
    14:00 +33°C° 0 mm 3 mps 672 mmHg 37%
    15:00 +31°C° 0 mm 3 mps 671 mmHg 38%
    16:00 +31°C° 0 mm 2 mps 671 mmHg 39%
    17:00 +29°C° 0 mm 2 mps 671 mmHg 44%
    18:00 +27°C° 0 mm 2 mps 671 mmHg 49%
    19:00 +25°C° 0 mm 2 mps 671 mmHg 53%
    20:00 +24°C° 0 mm 2 mps 671 mmHg 55%
    21:00 +23°C° 0 mm 2 mps 672 mmHg 56%
    22:00 +21°C° 0 mm 2 mps 672 mmHg 57%
    23:00 +21°C° 0 mm 2 mps 671 mmHg 58%

    Tomorrow, 24 May, Friday

    Time Temperature Precipitation Wind Pressure Humidity
    00:00 +22°C° 0 mm 1 mps 671 mmHg 58%
    01:00 +21°C° 0 mm 1 mps 671 mmHg 59%
    02:00 +21°C° 0 mm 1 mps 671 mmHg 60%
    03:00 +21°C° 0 mm 1 mps 670 mmHg 61%
    04:00 +20°C° 0 mm 1 mps 670 mmHg 62%
    05:00 +21°C° 0 mm 1 mps 670 mmHg 60%
    06:00 +21°C° 0 mm 2 mps 671 mmHg 59%
    07:00 +21°C° 0 mm 2 mps 672 mmHg 57%
    08:00 +25°C° 0 mm 3 mps 672 mmHg 50%
    09:00 +28°C° 0 mm 3 mps 673 mmHg 43%
    10:00 +32°C° 0 mm 4 mps 674 mmHg 36%
    11:00 +33°C° 0 mm 4 mps 673 mmHg 34%
    12:00 +34°C° 0 mm 3 mps 672 mmHg 32%
    13:00 +35°C° 0 mm 3 mps 672 mmHg 30%
    14:00 +34°C° 0 mm 3 mps 671 mmHg 30%
    15:00 +34°C° 0 mm 3 mps 671 mmHg 31%
    16:00 +34°C° 0 mm 3 mps 671 mmHg 31%
    17:00 +30°C° 0 mm 2 mps 671 mmHg 36%
    18:00 +28°C° 0 mm 2 mps 671 mmHg 41%
    19:00 +26°C° 0 mm 2 mps 671 mmHg 46%
    20:00 +25°C° 0 mm 2 mps 671 mmHg 48%
    21:00 +24°C° 0 mm 2 mps 671 mmHg 49%
    22:00 +24°C° 0 mm 2 mps 672 mmHg 51%
    23:00 +24°C° 0 mm 2 mps 671 mmHg 47%

    Day after tomorrow, 25 May, Saturday

    Time Temperature Precipitation Wind Pressure Humidity
    00:00 +24°C° 0 mm 3 mps 671 mmHg 44%
    01:00 +24°C° 0 mm 3 mps 671 mmHg 40%
    02:00 +22°C° 0 mm 3 mps 671 mmHg 41%
    03:00 +21°C° 0 mm 3 mps 670 mmHg 42%
    04:00 +20°C° 0 mm 2 mps 670 mmHg 43%
    05:00 +20°C° 0 mm 3 mps 671 mmHg 44%
    06:00 +20°C° 0 mm 3 mps 671 mmHg 44%
    07:00 +21°C° 0 mm 3 mps 672 mmHg 44%
    08:00 +23°C° 0 mm 4 mps 672 mmHg 38%
    09:00 +27°C° 0 mm 4 mps 673 mmHg 32%
    10:00 +30°C° 0 mm 5 mps 674 mmHg 27%
    11:00 +32°C° 0 mm 4 mps 673 mmHg 25%
    12:00 +33°C° 0 mm 4 mps 672 mmHg 23%
    13:00 +34°C° 0 mm 4 mps 672 mmHg 22%
    14:00 +34°C° 0 mm 3 mps 671 mmHg 23%
    15:00 +33°C° 0 mm 3 mps 671 mmHg 23%
    16:00 +33°C° 0 mm 3 mps 671 mmHg 24%
    17:00 +29°C° 0 mm 2 mps 671 mmHg 29%
    18:00 +27°C° 0 mm 2 mps 671 mmHg 34%
    19:00 +24°C° 0 mm 1 mps 671 mmHg 39%
    20:00 +24°C° 0 mm 2 mps 671 mmHg 40%
    21:00 +23°C° 0 mm 2 mps 671 mmHg 42%
    22:00 +21°C° 0 mm 2 mps 671 mmHg 43%
    23:00 +20°C° 0 mm 2 mps 671 mmHg 43%

    26 May, Sunday

    Time Temperature Precipitation Wind Pressure Humidity
    00:00 +20°C° 0 mm 2 mps 670 mmHg 43%
    01:00 +20°C° 0 mm 2 mps 670 mmHg 43%
    02:00 +19°C° 0 mm 2 mps 670 mmHg 43%
    03:00 +19°C° 0 mm 2 mps 670 mmHg 44%
    04:00 +19°C° 0 mm 2 mps 670 mmHg 44%
    05:00 +19°C° 0 mm 3 mps 670 mmHg 45%
    06:00 +19°C° 0 mm 3 mps 671 mmHg 45%
    07:00 +20°C° 0 mm 3 mps 672 mmHg 45%
    08:00 +23°C° 0 mm 4 mps 672 mmHg 42%
    09:00 +26°C° 0 mm 4 mps 673 mmHg 38%
    10:00 +29°C° 0 mm 4 mps 673 mmHg 35%
    11:00 +30°C° 0 mm 3 mps 673 mmHg 33%
    12:00 +31°C° 0 mm 3 mps 672 mmHg 31%
    13:00 +34°C° 0 mm 3 mps 671 mmHg 28%
    14:00 +33°C° 0 mm 3 mps 671 mmHg 29%
    15:00 +32°C° 0 mm 2 mps 670 mmHg 29%
    16:00 +31°C° 0 mm 2 mps 670 mmHg 30%
    17:00 +29°C° 0 mm 2 mps 670 mmHg 35%
    18:00 +26°C° 0 mm 2 mps 671 mmHg 40%
    19:00 +24°C° 0 mm 1 mps 671 mmHg 46%
    20:00 +23°C° 0 mm 2 mps 671 mmHg 47%
    21:00 +23°C° 0 mm 2 mps 671 mmHg 48%
    22:00 +21°C° 0 mm 2 mps 671 mmHg 50%
    23:00 +20°C° 0 mm 2 mps 671 mmHg 49%

    27 May, Monday

    Time Temperature Precipitation Wind Pressure Humidity
    00:00 +20°C° 0 mm 2 mps 670 mmHg 49%
    01:00 +20°C° 0 mm 2 mps 670 mmHg 49%
    02:00 +19°C° 0 mm 2 mps 670 mmHg 49%
    03:00 +19°C° 0 mm 2 mps 670 mmHg 48%
    04:00 +18°C° 0 mm 2 mps 670 mmHg 48%
    05:00 +19°C° 0 mm 3 mps 671 mmHg 47%
    06:00 +19°C° 0 mm 3 mps 671 mmHg 45%
    07:00 +20°C° 0 mm 3 mps 672 mmHg 44%
    08:00 +24°C° 0 mm 3 mps 672 mmHg 40%
    09:00 +27°C° 0 mm 4 mps 672 mmHg 36%
    10:00 +30°C° 0 mm 4 mps 673 mmHg 32%
    11:00 +31°C° 0 mm 3 mps 672 mmHg 29%
    12:00 +32°C° 0 mm 2 mps 672 mmHg 26%
    13:00 +35°C° 0 mm 2 mps 671 mmHg 23%
    14:00 +34°C° 0 mm 2 mps 671 mmHg 23%
    15:00 +32°C° 0 mm 2 mps 671 mmHg 24%
    16:00 +32°C° 0 mm 2 mps 670 mmHg 25%
    17:00 +30°C° 0 mm 1 mps 670 mmHg 29%
    18:00 +27°C° 0 mm 1 mps 671 mmHg 34%
    19:00 +25°C° 0 mm 1 mps 671 mmHg 38%
    20:00 +25°C° 0 mm 1 mps 671 mmHg 39%
    21:00 +25°C° 0 mm 1 mps 671 mmHg 41%
    22:00 +24°C° 0 mm 1 mps 671 mmHg 42%
    23:00 +24°C° 0 mm 1 mps 671 mmHg 43%

    28 May, Tuesday

    Time Temperature Precipitation Wind Pressure Humidity
    00:00 +23°C° 0 mm 1 mps 671 mmHg 45%
    01:00 +23°C° 0 mm 1 mps 670 mmHg 46%
    02:00 +22°C° 0 mm 1 mps 670 mmHg 48%
    03:00 +20°C° 0 mm 2 mps 670 mmHg 51%
    04:00 +19°C° 0 mm 2 mps 670 mmHg 53%
    05:00 +20°C° 0 mm 2 mps 670 mmHg 51%
    06:00 +20°C° 0 mm 2 mps 671 mmHg 50%
    07:00 +20°C° 0 mm 2 mps 671 mmHg 48%
    08:00 +24°C° 0 mm 3 mps 672 mmHg 44%
    09:00 +27°C° 0 mm 3 mps 672 mmHg 40%
    10:00 +30°C° 0 mm 3 mps 673 mmHg 36%
    11:00 +33°C° 0 mm 3 mps 672 mmHg 33%
    12:00 +34°C° 0 mm 2 mps 672 mmHg 30%
    13:00 +35°C° 0 mm 2 mps 671 mmHg 26%
    14:00 +34°C° 0 mm 2 mps 671 mmHg 28%
    15:00 +32°C° 0 mm 2 mps 670 mmHg 31%
    16:00 +30°C° 0 mm 2 mps 670 mmHg 33%
    17:00 +29°C° 0 mm 2 mps 670 mmHg 35%
    18:00 +28°C° 0 mm 2 mps 670 mmHg 37%
    19:00 +27°C° 0 mm 2 mps 671 mmHg 39%
    20:00 +27°C° 0 mm 2 mps 671 mmHg 39%
    21:00 +27°C° 0 mm 2 mps 671 mmHg 39%
    22:00 +26°C° 0 mm 2 mps 671 mmHg 38%
    23:00 +25°C° 0 mm 2 mps 671 mmHg 40%
    Show more